Regional Weather Roundup
Issued by NWS

Home | Current Version | Previous Version | Graphics & Text | Print | Product List | Glossary On
Versions: 1 2 3 4 5 6 7 8 9 10 11 12 13 14 15 16 17 18 19 20 21 22 23 24 25 26 27 28 29 30 31 32 33 34 35 36 37 38 39 40 41 42 43 44 45 46 47 48 49 50
000
ASUS43 KLMK 250802
RWRKY
KENTUCKY REGIONAL WEATHER ROUNDUP
NATIONAL WEATHER SERVICE LOUISVILLE KY
400 AM EDT THU MAY 25 2017

NOTE "FAIR" INDICATES FEW OR NO CLOUDS BELOW 12,000 FEET
WITH NO SIGNIFICANT WEATHER AND/OR OBSTRUCTIONS TO VISIBILITY.

KYZ001>023-026-027-061>063-070>075-250900-
WESTERN AND SOUTH CENTRAL KENTUCKY

CITY           SKY/WX    TMP DP  RH WIND       PRES   REMARKS
PADUCAH        MOCLDY    58  49  72 W8        29.59S
HENDERSON      CLOUDY    58  56  93 W9        29.55S
OWENSBORO      CLOUDY    58  56  93 W8        29.53S
HOPKINSVILLE   CLOUDY    55  54  99 W8        29.58S
BOWLING GREEN  LGT RAIN  57  54  89 W7        29.56R
GLASGOW        NOT AVBL
$$

KYZ024-025-028>034-038-045-046-053-250900-
NORTH CENTRAL KENTUCKY

CITY           SKY/WX    TMP DP  RH WIND       PRES   REMARKS
LOUISVILLE/SDF LGT RAIN  59  57  93 W10       29.46S
LOUISVILLE/LOU LGT RAIN  58  58 100 W9        29.46S FOG
FORT KNOX      LGT RAIN  57  56  99 SW8       29.47S FOG
$$

KYZ035>037-039>044-047>052-055>060-089>105-250900-
NORTHEAST KENTUCKY

CITY           SKY/WX    TMP DP  RH WIND       PRES   REMARKS
LEXINGTON      CLOUDY    56  53  90 SW12      29.46F
COVINGTON      LGT RAIN  59  57  93 SW7       29.39S
FRANKFORT      CLOUDY    58  53  84 SW10      29.44F
$$

KYZ054-064>069-076>088-106>120-250900-
SOUTHEAST KENTUCKY

CITY           SKY/WX    TMP DP  RH WIND       PRES   REMARKS
JACKSON        CLOUDY    55  50  83 CALM      29.50F
LONDON         CLOUDY    54  48  80 SW9       29.53F
SOMERSET       NOT AVBL
MIDDLESBORO    PTCLDY    51  48  91 CALM      29.56S
MONTICELLO     CLOUDY    54  51  90 W13       29.56S
$$





USA.gov is the U.S. government's official web portal to all federal, state and local government web resources and services.